This is the latest recevied weather packets stored in our database for station/object AD5L. If no packets are shown the sender has not sent any weather packets the latest 10 day(s).
| Time | Temp. | Humidity | Pressure | Rain* | Wind** | Luminosity | Snow |
|---|---|---|---|---|---|---|---|
| 1777935207 | 28.89° C | 62% | 1009 hPa | 0 mm | - | - | - |
| 1777934618 | 28.89° C | 61% | 1009.2 hPa | 0 mm | - | - | - |
| 1777934010 | 29.44° C | 61% | 1009.4 hPa | 0 mm | - | - | - |
| 1777933420 | 28.89° C | 61% | 1009.4 hPa | 0 mm | - | - | - |
| 1777932813 | 28.89° C | 63% | 1009.5 hPa | 0 mm | - | - | - |
| 1777932204 | 28.89° C | 62% | 1009.4 hPa | 0 mm | - | - | - |
| 1777931613 | 28.89° C | 61% | 1009.6 hPa | 0 mm | - | - | - |
| 1777931003 | 28.89° C | 62% | 1009.6 hPa | 0 mm | - | - | - |
| 1777930414 | 28.33° C | 62% | 1009.6 hPa | 0 mm | - | - | - |
| 1777929805 | 28.33° C | 63% | 1010 hPa | 0 mm | - | - | - |
| 1777929218 | 28.89° C | 62% | 1010.3 hPa | 0 mm | - | - | - |
| 1777928629 | 28.33° C | 62% | 1010.5 hPa | 0 mm | - | - | - |
| 1777928019 | 28.33° C | 62% | 1010.6 hPa | 0 mm | - | - | - |
| 1777927402 | 27.78° C | 64% | 1010.8 hPa | 0 mm | - | - | - |
| 1777926821 | 28.33° C | 63% | 1011 hPa | 0 mm | - | - | - |
| 1777926202 | 28.33° C | 63% | 1011.1 hPa | 0 mm | - | - | - |
| 1777925611 | 28.33° C | 62% | 1011.3 hPa | 0 mm | - | - | - |
| 1777925027 | 28.33° C | 62% | 1011.5 hPa | 0 mm | - | - | - |
| 1777924406 | 27.78° C | 63% | 1011.6 hPa | 0 mm | - | - | - |
| 1777923817 | 27.78° C | 63% | 1011.8 hPa | 0 mm | - | - | - |
| 1777923209 | 27.78° C | 64% | 1012 hPa | 0 mm | - | - | - |
| 1777922620 | 27.22° C | 64% | 1012.2 hPa | 0 mm | - | - | - |
| 1777922011 | 27.78° C | 62% | 1012.4 hPa | 0 mm | - | - | - |
| 1777921403 | 27.22° C | 66% | 1012.6 hPa | 0 mm | - | - | - |
| 1777920813 | 26.67° C | 65% | 1012.6 hPa | 0 mm | - | - | - |
* Rain latest hour (hover to see other rain measurements)
** Current wind speed in m/s (hover to see current wind gust speed)